Time,TemperatureF,DewpointF,PressureIn,WindDirection,WindDirectionDegrees,WindSpeedMPH,WindSpeedGustMPH,Humidity,HourlyPrecipIn,Conditions,Clouds,dailyrainin,SoftwareType,DateUTC
2013-12-18 00:12:00,41.3,37.0,30.24,WSW,255,0.0,0.0,85,0.00,,,0.00,weatherlink.com 1.10,2013-12-18 06:12:00,
2013-12-18 00:27:00,40.9,37.0,30.24,WSW,255,0.0,0.0,87,0.00,,,0.00,weatherlink.com 1.10,2013-12-18 06:27:00,
2013-12-18 00:42:00,40.4,38.0,30.24,WSW,255,0.0,0.0,89,0.00,,,0.00,weatherlink.com 1.10,2013-12-18 06:42:00,
2013-12-18 00:57:00,40.1,38.0,30.25,WSW,255,0.0,0.0,90,0.00,,,0.00,weatherlink.com 1.10,2013-12-18 06:57:00,
2013-12-18 01:12:00,39.5,37.0,30.25,WSW,255,0.0,0.0,89,0.00,,,0.00,weatherlink.com 1.10,2013-12-18 07:12:00,
2013-12-18 01:27:00,38.9,37.0,30.25,WSW,255,0.0,0.0,91,0.00,,,0.00,weatherlink.com 1.10,2013-12-18 07:27:00,
2013-12-18 01:42:00,39.2,37.0,30.25,West,260,1.0,1.0,91,0.00,,,0.00,weatherlink.com 1.10,2013-12-18 07:42:00,
2013-12-18 01:57:00,39.8,37.0,30.25,West,267,0.0,1.0,89,0.00,,,0.00,weatherlink.com 1.10,2013-12-18 07:57:00,
2013-12-18 02:12:00,40.6,37.0,30.25,West,267,0.0,1.0,87,0.00,,,0.00,weatherlink.com 1.10,2013-12-18 08:12:00,
2013-12-18 02:27:00,41.3,37.0,30.26,WNW,283,1.0,1.0,86,0.00,,,0.00,weatherlink.com 1.10,2013-12-18 08:27:00,
2013-12-18 02:42:00,42.3,38.0,30.26,WNW,288,0.0,1.0,84,0.00,,,0.00,weatherlink.com 1.10,2013-12-18 08:42:00,
2013-12-18 02:57:00,42.9,38.0,30.26,WNW,288,1.0,1.0,84,0.00,,,0.00,weatherlink.com 1.10,2013-12-18 08:57:00,
2013-12-18 03:12:00,42.6,38.0,30.26,WNW,285,1.0,1.0,84,0.00,,,0.00,weatherlink.com 1.10,2013-12-18 09:12:00,
2013-12-18 03:27:00,42.1,38.0,30.26,WNW,285,1.0,1.0,86,0.00,,,0.00,weatherlink.com 1.10,2013-12-18 09:27:00,
2013-12-18 03:42:00,42.3,38.0,30.26,WNW,286,1.0,1.0,86,0.00,,,0.00,weatherlink.com 1.10,2013-12-18 09:42:00,
2013-12-18 03:57:00,42.1,38.0,30.26,WNW,284,0.0,1.0,86,0.00,,,0.00,weatherlink.com 1.10,2013-12-18 09:57:00,
2013-12-18 04:12:00,40.1,37.0,30.26,WNW,283,0.0,0.0,88,0.00,,,0.00,weatherlink.com 1.10,2013-12-18 10:12:00,
2013-12-18 04:27:00,38.3,36.0,30.26,WNW,285,0.0,0.0,91,0.00,,,0.00,weatherlink.com 1.10,2013-12-18 10:27:00,
2013-12-18 04:42:00,38.2,37.0,30.27,West,278,0.0,1.0,95,0.00,,,0.00,weatherlink.com 1.10,2013-12-18 10:42:00,
2013-12-18 04:57:00,39.1,37.0,30.27,West,280,0.0,1.0,92,0.00,,,0.00,weatherlink.com 1.10,2013-12-18 10:57:00,
2013-12-18 05:12:00,38.4,36.0,30.27,West,280,0.0,1.0,92,0.00,,,0.00,weatherlink.com 1.10,2013-12-18 11:12:00,
2013-12-18 05:27:00,37.1,35.0,30.28,West,279,0.0,0.0,93,0.00,,,0.00,weatherlink.com 1.10,2013-12-18 11:27:00,
2013-12-18 05:42:00,36.8,36.0,30.28,SW,228,0.0,0.0,95,0.00,,,0.00,weatherlink.com 1.10,2013-12-18 11:42:00,
2013-12-18 05:57:00,36.6,35.0,30.29,SW,228,0.0,0.0,95,0.00,,,0.00,weatherlink.com 1.10,2013-12-18 11:57:00,
2013-12-18 06:13:00,36.5,36.0,30.30,SW,229,0.0,0.0,96,0.00,,,0.00,weatherlink.com 1.10,2013-12-18 12:13:00,
2013-12-18 06:29:00,36.4,35.0,30.30,WSW,257,0.0,1.0,95,0.00,,,0.00,weatherlink.com 1.10,2013-12-18 12:29:00,
2013-12-18 06:43:00,36.5,35.0,30.31,WSW,257,0.0,0.0,95,0.00,,,0.00,weatherlink.com 1.10,2013-12-18 12:43:00,
2013-12-18 06:58:00,36.5,35.0,30.31,WSW,257,0.0,0.0,95,0.00,,,0.00,weatherlink.com 1.10,2013-12-18 12:58:00,
2013-12-18 07:13:00,36.7,35.0,30.32,WSW,257,0.0,1.0,95,0.00,,,0.00,weatherlink.com 1.10,2013-12-18 13:13:00,
2013-12-18 07:29:00,38.1,37.0,30.32,WSW,257,0.0,0.0,94,0.00,,,0.00,weatherlink.com 1.10,2013-12-18 13:29:00,
2013-12-18 07:43:00,43.0,40.0,30.33,WSW,257,0.0,0.0,89,0.00,,,0.00,weatherlink.com 1.10,2013-12-18 13:43:00,
2013-12-18 07:58:00,46.8,41.0,30.33,WNW,301,0.0,1.0,80,0.00,,,0.00,weatherlink.com 1.10,2013-12-18 13:58:00,
2013-12-18 08:13:00,48.0,40.0,30.34,West,269,1.0,2.0,75,0.00,,,0.00,weatherlink.com 1.10,2013-12-18 14:13:00,
2013-12-18 08:28:00,48.6,41.0,30.34,West,281,1.0,2.0,74,0.00,,,0.00,weatherlink.com 1.10,2013-12-18 14:28:00,
2013-12-18 08:43:00,49.3,40.0,30.35,North,350,0.0,4.0,71,0.00,,,0.00,weatherlink.com 1.10,2013-12-18 14:43:00,
2013-12-18 08:58:00,49.7,40.0,30.36,ENE,77,3.0,5.0,69,0.00,,,0.00,weatherlink.com 1.10,2013-12-18 14:58:00,
2013-12-18 09:13:00,49.3,39.0,30.36,SW,225,0.0,7.0,69,0.00,,,0.00,weatherlink.com 1.10,2013-12-18 15:13:00,
2013-12-18 09:28:00,51.0,40.0,30.36,ESE,105,1.0,5.0,65,0.00,,,0.00,weatherlink.com 1.10,2013-12-18 15:28:00,
2013-12-18 09:43:00,52.4,39.0,30.36,East,97,0.0,3.0,60,0.00,,,0.00,weatherlink.com 1.10,2013-12-18 15:43:00,
2013-12-18 09:58:00,52.9,39.0,30.37,East,86,0.0,5.0,60,0.00,,,0.00,weatherlink.com 1.10,2013-12-18 15:58:00,
2013-12-18 10:13:00,54.0,39.0,30.36,West,263,0.0,5.0,58,0.00,,,0.00,weatherlink.com 1.10,2013-12-18 16:13:00,
2013-12-18 10:28:00,54.2,37.0,30.36,East,95,2.0,6.0,52,0.00,,,0.00,weatherlink.com 1.10,2013-12-18 16:28:00,
2013-12-18 10:43:00,54.1,37.0,30.36,ENE,62,2.0,5.0,52,0.00,,,0.00,weatherlink.com 1.10,2013-12-18 16:43:00,
2013-12-18 10:58:00,55.5,36.0,30.35,East,82,2.0,4.0,49,0.00,,,0.00,weatherlink.com 1.10,2013-12-18 16:58:00,
2013-12-18 11:13:00,55.6,36.0,30.34,SE,144,1.0,6.0,48,0.00,,,0.00,weatherlink.com 1.10,2013-12-18 17:13:00,
2013-12-18 11:28:00,57.2,36.0,30.34,East,94,5.0,6.0,46,0.00,,,0.00,weatherlink.com 1.10,2013-12-18 17:28:00,
2013-12-18 11:43:00,58.1,36.0,30.33,NW,321,2.0,4.0,44,0.00,,,0.00,weatherlink.com 1.10,2013-12-18 17:43:00,
2013-12-18 11:59:00,58.8,36.0,30.32,SSE,152,0.0,5.0,42,0.00,,,0.00,weatherlink.com 1.10,2013-12-18 17:59:00,
2013-12-18 12:14:00,60.4,37.0,30.32,North,11,0.0,3.0,42,0.00,,,0.00,weatherlink.com 1.10,2013-12-18 18:14:00,
2013-12-18 12:29:00,60.6,38.0,30.31,SE,130,1.0,5.0,43,0.00,,,0.00,weatherlink.com 1.10,2013-12-18 18:29:00,
2013-12-18 12:44:00,60.5,36.0,30.30,West,277,2.0,5.0,41,0.00,,,0.00,weatherlink.com 1.10,2013-12-18 18:44:00,
2013-12-18 12:59:00,60.7,37.0,30.30,NE,51,0.0,7.0,41,0.00,,,0.00,weatherlink.com 1.10,2013-12-18 18:59:00,
2013-12-18 13:14:00,61.1,37.0,30.29,East,98,0.0,4.0,41,0.00,,,0.00,weatherlink.com 1.10,2013-12-18 19:14:00,
2013-12-18 13:29:00,61.3,37.0,30.29,North,354,2.0,4.0,40,0.00,,,0.00,weatherlink.com 1.10,2013-12-18 19:29:00,
2013-12-18 13:44:00,61.6,34.0,30.28,WNW,288,1.0,4.0,36,0.00,,,0.00,weatherlink.com 1.10,2013-12-18 19:44:00,
2013-12-18 13:59:00,61.8,33.0,30.28,NW,321,1.0,5.0,34,0.00,,,0.00,weatherlink.com 1.10,2013-12-18 19:59:00,
2013-12-18 14:14:00,61.7,34.0,30.27,SW,231,1.0,5.0,35,0.00,,,0.00,weatherlink.com 1.10,2013-12-18 20:14:00,
2013-12-18 14:29:00,61.9,34.0,30.27,SE,127,3.0,3.0,36,0.00,,,0.00,weatherlink.com 1.10,2013-12-18 20:29:00,
2013-12-18 14:44:00,61.3,35.0,30.27,West,277,0.0,3.0,37,0.00,,,0.00,weatherlink.com 1.10,2013-12-18 20:44:00,
2013-12-18 14:59:00,61.2,34.0,30.27,West,270,0.0,2.0,36,0.00,,,0.00,weatherlink.com 1.10,2013-12-18 20:59:00,
2013-12-18 15:14:00,61.3,34.0,30.27,West,259,0.0,4.0,36,0.00,,,0.00,weatherlink.com 1.10,2013-12-18 21:14:00,
2013-12-18 15:29:00,61.1,34.0,30.27,West,276,1.0,1.0,36,0.00,,,0.00,weatherlink.com 1.10,2013-12-18 21:29:00,
2013-12-18 15:44:00,60.5,34.0,30.27,SSW,208,0.0,1.0,37,0.00,,,0.00,weatherlink.com 1.10,2013-12-18 21:44:00,
2013-12-18 15:59:00,58.9,34.0,30.27,West,262,0.0,1.0,39,0.00,,,0.00,weatherlink.com 1.10,2013-12-18 21:59:00,
2013-12-18 16:14:00,56.9,34.0,30.27,West,261,0.0,0.0,43,0.00,,,0.00,weatherlink.com 1.10,2013-12-18 22:14:00,
2013-12-18 16:29:00,54.9,36.0,30.27,West,262,0.0,0.0,49,0.00,,,0.00,weatherlink.com 1.10,2013-12-18 22:29:00,
2013-12-18 16:44:00,52.4,35.0,30.26,West,262,0.0,0.0,52,0.00,,,0.00,weatherlink.com 1.10,2013-12-18 22:44:00,
2013-12-18 16:59:00,51.2,35.0,30.26,West,262,0.0,0.0,54,0.00,,,0.00,weatherlink.com 1.10,2013-12-18 22:59:00,
2013-12-18 17:14:00,50.4,35.0,30.26,West,262,0.0,0.0,56,0.00,,,0.00,weatherlink.com 1.10,2013-12-18 23:14:00,
2013-12-18 17:29:00,49.9,35.0,30.26,West,262,0.0,0.0,57,0.00,,,0.00,weatherlink.com 1.10,2013-12-18 23:29:00,
2013-12-18 17:44:00,49.1,37.0,30.26,West,262,0.0,0.0,63,0.00,,,0.00,weatherlink.com 1.10,2013-12-18 23:44:00,
2013-12-18 17:59:00,47.7,34.0,30.26,West,262,0.0,0.0,60,0.00,,,0.00,weatherlink.com 1.10,2013-12-18 23:59:00,
2013-12-18 18:14:00,47.6,35.0,30.26,West,262,0.0,0.0,63,0.00,,,0.00,weatherlink.com 1.10,2013-12-19 00:14:00,
2013-12-18 18:29:00,47.7,35.0,30.27,West,262,0.0,0.0,61,0.00,,,0.00,weatherlink.com 1.10,2013-12-19 00:29:00,
2013-12-18 18:44:00,47.5,35.0,30.27,West,262,0.0,0.0,63,0.00,,,0.00,weatherlink.com 1.10,2013-12-19 00:44:00,
2013-12-18 18:59:00,47.5,36.0,30.27,West,262,0.0,0.0,64,0.00,,,0.00,weatherlink.com 1.10,2013-12-19 00:59:00,
2013-12-18 19:14:00,47.1,34.0,30.28,West,262,0.0,0.0,60,0.00,,,0.00,weatherlink.com 1.10,2013-12-19 01:14:00,
2013-12-18 19:29:00,46.5,34.0,30.28,West,262,0.0,0.0,63,0.00,,,0.00,weatherlink.com 1.10,2013-12-19 01:29:00,
2013-12-18 19:44:00,45.0,34.0,30.28,WSW,257,0.0,0.0,66,0.00,,,0.00,weatherlink.com 1.10,2013-12-19 01:44:00,
2013-12-18 19:59:00,44.6,36.0,30.28,SE,136,0.0,0.0,73,0.00,,,0.00,weatherlink.com 1.10,2013-12-19 01:59:00,
2013-12-18 20:14:00,43.5,37.0,30.28,SE,135,0.0,0.0,78,0.00,,,0.00,weatherlink.com 1.10,2013-12-19 02:14:00,
2013-12-18 20:29:00,43.3,37.0,30.27,SE,136,0.0,0.0,77,0.00,,,0.00,weatherlink.com 1.10,2013-12-19 02:29:00,
2013-12-18 20:44:00,43.4,36.0,30.27,SE,135,0.0,0.0,76,0.00,,,0.00,weatherlink.com 1.10,2013-12-19 02:44:00,
2013-12-18 20:59:00,43.5,36.0,30.27,East,94,0.0,0.0,75,0.00,,,0.00,weatherlink.com 1.10,2013-12-19 02:59:00,
2013-12-18 21:14:00,43.0,37.0,30.27,East,95,0.0,0.0,80,0.00,,,0.00,weatherlink.com 1.10,2013-12-19 03:14:00,
2013-12-18 21:29:00,42.7,37.0,30.27,East,89,0.0,0.0,80,0.00,,,0.00,weatherlink.com 1.10,2013-12-19 03:29:00,
2013-12-18 21:44:00,42.6,37.0,30.27,East,96,0.0,1.0,79,0.00,,,0.00,weatherlink.com 1.10,2013-12-19 03:44:00,
2013-12-18 21:59:00,42.1,36.0,30.27,East,84,0.0,1.0,80,0.00,,,0.00,weatherlink.com 1.10,2013-12-19 03:59:00,
2013-12-18 22:14:00,41.8,37.0,30.27,East,84,0.0,1.0,82,0.00,,,0.00,weatherlink.com 1.10,2013-12-19 04:14:00,
2013-12-18 22:29:00,41.3,37.0,30.27,East,82,0.0,1.0,83,0.00,,,0.00,weatherlink.com 1.10,2013-12-19 04:29:00,
2013-12-18 22:44:00,41.2,36.0,30.27,East,80,0.0,1.0,83,0.00,,,0.00,weatherlink.com 1.10,2013-12-19 04:44:00,
2013-12-18 22:59:00,40.6,36.0,30.27,ENE,73,0.0,1.0,84,0.00,,,0.00,weatherlink.com 1.10,2013-12-19 04:59:00,
2013-12-18 23:14:00,40.7,36.0,30.27,East,97,0.0,1.0,84,0.00,,,0.00,weatherlink.com 1.10,2013-12-19 05:14:00,
2013-12-18 23:29:00,39.9,36.0,30.27,East,98,0.0,1.0,84,0.00,,,0.00,weatherlink.com 1.10,2013-12-19 05:29:00,
2013-12-18 23:44:00,38.8,35.0,30.27,East,97,0.0,0.0,86,0.00,,,0.00,weatherlink.com 1.10,2013-12-19 05:44:00,
2013-12-18 23:59:00,38.4,36.0,30.26,East,97,0.0,0.0,89,0.00,,,0.00,weatherlink.com 1.10,2013-12-19 05:59:00,